Theta_e
329 329 329 323 324 324 330 331 329 331 331 328 328 330 335 337 343 341 337 338 337 336 336 338 338 339 338 336 336 335 334 332 331 332 330 331 331 332 329 328 327 329 328 327 327 325 326 327 326
329 329 328 318 324 328 331 330 334 332 328 327 329 333 336 341 337 336 338 339 337 335 336 338 338 337 336 336 336 335 334 332 330 331 330 332 333 332 329 328 327 328 327 327 326 326 326 327 327
329 328 324 321 322 327 328 329 332 329 328 330 332 331 336 339 335 337 338 339 336 335 336 337 337 337 337 336 335 333 332 331 330 329 330 330 333 331 329 327 327 327 328 326 326 326 327 327 325
328 326 323 327 330 325 324 327 331 332 331 330 331 338 335 335 337 337 339 339 336 335 336 336 336 337 335 332 332 331 330 330 329 328 330 328 327 329 326 326 326 327 326 325 326 327 326 324 325
327 323 329 332 333 326 322 323 327 332 331 332 330 336 337 336 338 338 339 338 338 336 335 335 335 332 332 333 332 330 330 329 329 328 327 327 328 329 326 325 325 326 325 326 326 326 322 322 324
325 323 331 333 331 329 324 322 325 328 329 330 329 337 336 337 338 338 339 338 337 337 336 335 334 332 333 333 331 330 330 329 328 327 328 327 327 328 326 324 325 326 325 325 326 320 317 318 320
326 327 333 333 333 330 327 325 327 328 328 330 328 338 336 335 337 337 338 338 337 336 336 334 334 333 333 333 330 329 329 328 327 326 326 327 326 328 327 324 324 326 326 326 321 317 316 316 322
322 325 333 331 331 332 325 326 325 328 330 328 328 333 336 335 337 337 338 338 336 336 336 335 333 333 333 333 331 329 328 327 325 325 325 326 325 327 327 325 323 324 325 324 318 317 317 317 323
322 326 329 330 331 326 323 325 323 323 327 328 330 330 332 337 337 337 337 337 337 336 336 335 333 332 332 333 332 329 327 326 325 324 324 325 325 324 325 325 324 323 323 321 318 317 317 316 320
323 324 325 324 322 326 325 324 323 323 325 327 330 335 336 337 337 336 336 336 336 337 336 334 332 331 332 333 333 331 329 327 326 325 324 322 324 324 324 324 324 324 323 319 318 317 317 317 319
325 326 324 326 323 324 325 325 323 323 325 324 327 330 335 336 336 336 336 337 336 336 337 334 333 331 331 332 332 332 330 328 327 325 325 323 323 324 323 323 324 325 324 322 319 318 317 320 321
327 326 326 327 324 326 326 324 324 323 322 320 320 325 334 333 334 335 336 336 337 335 336 335 334 332 331 331 332 332 330 330 328 326 325 323 322 323 323 323 324 324 323 321 318 318 318 322 322
323 323 323 323 323 323 324 325 324 323 320 319 319 328 333 333 333 335 335 336 337 335 334 334 334 333 332 331 331 331 330 330 329 326 325 324 323 323 322 323 323 323 323 319 318 318 318 321 322
323 324 324 323 322 322 323 323 325 323 321 321 321 322 329 332 333 333 333 335 336 336 334 333 334 334 332 331 331 330 329 329 329 326 325 324 323 324 324 323 322 323 323 320 318 319 321 321 322
323 326 323 323 323 323 320 323 322 320 320 321 321 320 318 328 332 332 333 334 335 335 336 334 333 333 333 332 332 330 330 330 329 327 326 325 323 324 324 323 323 321 321 320 319 322 322 322 322
324 323 327 323 322 322 322 325 321 319 317 318 317 317 318 319 321 333 333 333 333 333 334 335 334 333 332 332 332 332 331 330 328 328 327 325 324 323 324 324 323 322 321 320 320 321 322 322 322
324 325 324 324 321 322 322 323 321 318 317 318 316 314 315 318 319 321 324 330 332 333 333 334 334 334 332 331 331 331 330 329 329 328 327 327 325 324 324 324 323 322 324 322 322 321 321 322 322
323 325 324 323 322 321 322 322 320 318 317 318 317 316 315 312 314 319 320 323 325 330 332 333 334 333 334 331 330 330 329 329 328 328 328 328 327 325 325 325 324 323 323 323 322 321 321 321 322
324 323 323 323 321 324 323 323 321 318 317 317 318 318 318 317 317 319 320 321 323 328 331 332 333 333 332 330 329 328 328 328 328 328 328 328 327 327 327 326 324 324 323 322 322 321 321 321 321
323 324 324 322 322 323 323 323 320 318 318 319 319 319 319 319 317 318 319 319 318 325 330 332 332 332 332 330 330 329 328 328 328 327 327 327 327 327 327 326 325 323 322 321 320 320 320 320 321
323 324 324 324 322 320 321 322 320 318 316 316 317 318 318 318 319 318 318 317 318 321 328 330 331 332 332 331 330 329 329 328 327 326 326 326 327 326 326 326 325 323 322 321 320 319 320 319 320
324 320 322 322 324 326 320 324 318 316 316 315 315 315 315 315 316 317 318 317 317 318 321 327 330 331 331 331 330 329 329 328 328 327 326 325 326 326 325 325 324 323 322 320 320 319 319 319 318
320 318 320 320 321 322 323 324 320 316 317 316 315 313 313 312 313 315 316 317 318 316 319 324 329 330 331 331 331 330 329 329 328 328 327 326 325 325 325 325 324 323 322 321 320 318 318 318 318
316 318 318 319 319 324 320 322 319 316 315 313 313 313 312 312 313 312 314 315 317 318 317 321 328 330 330 331 331 331 330 330 329 328 327 327 325 325 324 324 323 322 322 321 320 319 319 318 319
317 318 317 315 321 319 316 319 319 316 314 313 313 313 312 311 312 311 311 312 314 316 317 318 325 329 330 330 331 331 330 330 330 329 328 327 326 325 324 324 322 322 322 321 321 320 320 319 319
316 317 316 314 315 314 314 319 316 314 314 312 312 312 311 312 311 311 311 311 313 314 314 316 320 327 329 330 330 330 331 330 330 330 329 328 327 326 325 324 323 322 322 322 321 321 321 321 320
314 319 315 314 307 314 314 313 313 312 312 311 311 309 308 309 310 308 308 311 313 314 316 317 316 321 327 329 329 330 330 330 330 330 330 329 328 327 326 325 324 323 322 322 322 322 322 322 321
314 312 314 309 314 315 316 313 312 311 311 309 306 306 308 308 308 307 306 307 310 312 315 317 317 319 322 328 330 330 330 330 330 330 330 330 329 328 327 326 325 324 323 322 322 322 322 322 322
314 315 314 311 310 309 312 311 308 310 310 308 306 309 309 309 308 307 306 309 311 311 311 312 313 314 315 317 322 329 330 330 330 330 330 330 329 329 328 327 326 325 324 323 322 322 322 322 322
310 313 313 315 310 312 313 311 309 310 306 308 309 310 311 308 307 307 307 307 307 307 306 307 308 309 310 311 313 315 323 328 330 330 330 330 330 329 328 328 327 326 325 324 323 323 322 322 322
Wind_Speed
28 25 19 5 4 5 2 0 1 3 2 1 2 7 7 3 2 2 6 14 18 21 19 17 15 16 17 18 17 14 11 12 13 11 12 15 14 16 15 16 14 14 15 15 15 14 15 15 15
28 20 5 2 5 4 4 4 4 3 5 6 8 4 3 2 2 6 15 18 18 22 21 19 18 16 16 16 17 15 13 10 13 12 10 11 16 16 16 16 15 14 14 14 14 13 13 13 14
18 10 3 4 2 4 3 3 3 2 3 3 4 4 6 4 1 15 7 23 21 22 22 21 18 17 15 14 13 13 11 12 12 12 11 12 15 16 17 16 15 13 13 12 12 12 12 13 13
13 8 4 4 2 2 5 4 4 3 2 1 3 5 2 4 14 10 25 24 22 22 21 21 19 17 15 13 11 11 13 14 13 13 12 10 12 13 11 15 14 12 12 11 11 11 11 12 12
5 3 4 3 3 2 1 2 4 2 1 1 2 4 4 2 7 16 28 24 21 21 21 19 19 17 15 13 12 13 16 14 14 13 12 11 14 13 11 14 14 13 11 10 10 9 10 11 10
4 3 4 1 4 4 2 2 4 2 1 3 4 4 3 7 18 26 30 24 19 22 20 19 19 18 16 15 13 15 16 16 16 15 14 12 13 12 11 12 14 13 11 10 9 9 10 10 10
4 3 3 1 3 5 2 1 1 3 4 0 1 2 2 5 17 22 25 24 22 17 18 19 19 18 17 16 15 15 16 15 18 17 16 14 14 11 12 11 14 13 11 10 9 9 9 9 10
4 3 1 1 1 4 3 5 3 2 2 2 1 3 4 8 16 18 24 26 24 19 19 20 21 20 20 19 17 16 16 17 14 17 18 16 15 13 12 10 9 15 12 10 9 9 9 9 11
3 3 2 3 1 4 4 4 5 1 4 3 3 3 4 16 18 17 19 20 22 24 24 22 23 23 22 21 19 18 18 17 16 15 17 18 17 17 15 13 11 15 13 10 9 9 9 9 9
4 3 7 5 3 3 5 3 4 3 2 1 2 4 9 26 23 21 18 19 20 25 26 26 24 25 24 23 23 22 20 20 20 18 17 17 20 19 19 16 14 14 12 12 11 9 9 8 8
3 5 4 4 4 3 3 5 2 3 2 3 3 4 8 12 18 20 22 23 23 25 28 28 26 26 27 27 26 25 24 23 22 20 19 17 21 22 21 20 19 18 17 15 13 12 11 10 8
2 5 3 4 4 2 1 2 5 5 6 3 4 3 11 10 16 21 26 29 25 25 32 30 28 29 28 28 29 28 28 27 26 24 21 21 22 24 25 24 21 21 19 18 15 13 12 11 9
4 4 4 7 4 1 1 4 5 8 8 8 5 5 13 13 18 25 31 32 33 29 33 32 32 32 30 31 30 30 30 30 29 27 25 24 25 24 24 26 24 23 21 20 17 15 14 13 11
1 2 3 3 6 3 3 4 3 5 4 6 7 8 9 13 22 21 21 31 34 34 36 34 33 35 33 34 34 34 33 31 32 31 29 26 29 26 28 27 25 25 24 22 20 18 16 15 13
0 3 3 4 2 3 4 8 8 8 7 9 9 10 9 14 20 24 32 34 38 40 39 37 36 36 38 38 37 37 36 33 34 34 32 30 31 28 30 29 27 25 26 23 22 20 18 17 16
4 1 3 3 5 5 5 16 7 6 6 11 11 9 10 12 22 31 33 34 35 38 38 41 39 40 40 40 40 39 39 36 35 36 35 35 32 32 31 31 29 28 25 25 24 23 22 21 20
2 6 4 4 5 4 5 7 3 5 8 13 10 10 9 10 14 25 33 37 39 39 40 40 42 42 43 42 40 40 40 38 37 37 37 39 37 34 35 34 31 29 28 28 27 27 26 24 23
11 6 4 5 4 4 7 18 7 8 8 12 12 11 10 9 13 29 30 35 39 42 40 41 43 46 45 46 43 41 41 41 39 40 41 40 40 39 38 37 35 32 32 32 31 30 28 28 26
1 4 7 3 5 1 6 14 7 7 10 9 13 12 12 14 16 26 34 37 35 39 40 43 40 46 41 42 38 37 41 41 42 43 42 43 41 41 41 40 37 36 37 37 35 33 32 31 27
7 10 15 3 4 2 5 18 15 8 14 18 17 16 16 14 12 21 28 35 35 37 42 42 42 44 46 38 43 40 38 36 40 40 43 45 44 44 44 44 42 41 39 39 39 37 32 34 31
8 15 9 8 2 4 3 15 17 10 9 12 11 14 15 16 19 19 22 27 33 35 40 43 43 41 44 42 33 31 28 29 29 36 44 49 47 48 47 47 45 44 43 43 43 41 39 27 33
10 7 8 6 4 5 5 7 11 10 15 16 17 13 14 16 16 16 18 22 28 39 41 43 44 43 43 41 34 35 36 32 38 36 36 38 48 51 50 50 48 47 47 43 44 44 42 33 26
10 7 7 6 6 3 10 5 7 2 14 16 15 11 14 12 13 14 15 25 33 35 37 41 42 42 43 39 42 39 37 36 30 31 32 38 39 48 51 52 49 47 44 45 42 40 43 39 32
4 3 0 0 3 9 19 8 12 10 13 7 6 9 11 11 15 12 21 27 29 33 36 37 37 40 40 40 44 42 41 38 31 32 33 35 37 38 47 49 49 48 45 45 44 46 43 43 37
5 4 4 3 6 8 2 7 14 11 13 14 15 16 17 11 14 14 13 16 26 26 31 34 34 34 37 40 42 44 43 40 40 37 35 32 33 35 42 47 45 47 49 44 42 41 42 44 41
9 12 8 6 5 6 2 6 6 13 18 8 12 9 10 15 13 13 11 16 20 21 22 27 29 32 33 37 41 43 44 40 40 39 37 35 36 39 39 41 45 47 45 45 42 41 42 42 43
6 8 13 4 2 2 4 7 10 17 19 17 8 6 8 12 12 12 12 18 14 13 10 7 16 26 30 33 34 36 37 39 38 38 38 40 38 37 35 37 40 45 46 44 43 42 42 40 42
11 7 2 2 4 6 5 5 8 8 3 6 8 9 10 9 10 11 11 20 25 20 13 9 10 15 20 30 33 34 36 37 39 38 38 38 37 35 35 39 43 44 44 44 43 42 41 41 41
4 8 5 5 5 4 3 6 10 17 5 4 5 7 8 9 9 10 10 22 23 25 23 21 16 17 18 17 23 31 33 34 36 38 41 39 38 38 40 40 40 41 44 45 44 43 41 40 41
16 17 14 9 7 4 4 13 8 3 2 3 7 6 8 7 8 12 17 22 25 27 30 29 33 36 39 36 26 22 25 34 35 36 38 39 40 39 41 40 41 41 42 43 43 44 41 41 41
Wind_Direction
337 337 336 22 55 65 335 22 182 133 86 235 125 107 130 86 125 198 156 162 156 155 155 154 152 147 142 134 129 121 120 121 113 118 111 122 122 116 107 116 113 113 109 105 102 100 101 102 105
342 342 11 74 83 73 302 310 105 180 176 150 102 101 72 119 174 120 137 168 165 159 157 156 155 152 146 141 138 138 137 139 130 132 129 127 132 120 111 121 120 117 115 108 107 104 107 107 112
351 358 64 75 97 135 175 234 181 214 179 146 108 69 138 174 165 158 193 168 165 163 161 158 159 158 154 154 155 159 160 138 137 142 144 137 128 127 120 123 126 124 120 117 114 112 113 114 114
349 9 32 74 340 42 168 196 222 165 316 92 101 78 52 240 158 158 161 163 163 166 167 161 164 165 164 163 158 150 140 140 142 152 147 157 154 151 141 136 135 134 134 128 124 121 124 118 115
24 53 47 27 311 333 266 212 185 157 327 335 136 182 130 184 174 165 166 166 163 165 169 170 169 171 169 163 160 152 144 151 150 158 162 157 159 162 150 146 143 145 145 138 130 130 126 123 120
33 84 61 360 311 305 262 279 171 112 111 310 61 100 209 183 165 159 166 168 169 166 172 178 177 173 175 170 166 163 160 165 156 161 166 164 168 170 168 156 156 158 152 145 142 138 130 130 129
97 67 170 207 284 320 253 202 167 158 131 229 80 95 300 197 173 162 168 170 168 173 181 180 182 179 179 178 176 171 172 173 166 168 171 174 174 177 176 167 172 172 162 160 155 143 132 133 135
102 88 354 246 228 293 316 331 350 90 216 301 127 170 251 216 187 171 177 176 175 185 194 193 187 186 184 184 182 180 179 179 184 176 174 178 181 180 188 188 186 180 175 174 163 153 141 139 142
93 72 223 232 124 313 348 11 332 287 91 3 27 110 276 171 174 168 178 187 186 190 196 194 193 191 190 189 189 188 186 188 188 186 182 182 186 191 187 198 193 190 194 184 175 166 156 152 156
97 141 216 203 104 20 360 40 307 341 42 313 338 50 135 161 174 178 189 200 196 196 198 194 197 196 193 195 194 193 194 194 196 196 197 195 189 194 200 204 201 201 207 198 190 182 176 168 165
185 189 222 269 160 98 320 318 312 1 285 225 234 196 168 169 185 198 208 211 211 208 206 204 201 201 197 198 198 199 198 200 201 206 206 206 199 198 201 207 204 203 206 209 203 197 195 193 193
185 241 218 266 114 73 255 299 305 183 230 202 299 215 182 186 197 206 214 215 216 218 213 212 207 204 201 203 200 203 205 204 204 206 210 208 204 206 206 209 211 213 214 212 209 207 204 209 222
187 254 282 307 356 264 286 221 237 254 256 292 298 192 193 209 214 214 216 216 214 214 212 218 213 211 207 206 206 204 210 213 209 208 210 214 210 207 208 211 217 219 218 217 213 211 211 221 229
199 234 285 306 319 290 277 274 166 247 240 257 278 231 228 215 217 222 220 222 220 219 216 217 218 216 215 212 211 211 214 218 216 214 212 219 215 219 218 217 221 224 223 221 218 217 218 227 232
244 274 312 227 257 295 354 285 225 244 272 278 271 261 244 231 228 219 226 222 222 222 223 217 220 219 219 218 216 216 219 219 219 218 216 220 220 223 220 223 227 229 224 225 225 227 228 233 236
159 90 224 244 197 251 158 255 279 255 250 264 265 267 262 254 229 234 237 236 237 230 223 225 220 221 223 222 222 221 222 221 223 223 220 219 226 227 224 227 233 229 226 224 224 228 230 233 234
204 247 212 279 233 259 191 279 275 284 276 275 271 266 258 268 266 250 246 243 244 241 230 224 221 215 222 227 226 225 224 225 227 227 224 222 226 228 227 231 234 230 228 227 226 227 229 232 234
229 221 237 201 227 197 281 277 286 293 284 268 272 271 264 248 252 269 267 254 247 244 237 229 223 220 219 225 226 226 227 229 230 231 229 227 226 227 227 232 234 230 229 228 229 231 230 233 236
206 214 240 174 209 205 260 285 284 293 293 277 273 278 272 265 261 272 276 274 252 240 234 228 220 223 217 208 215 218 221 224 228 230 232 230 230 229 228 230 231 229 229 229 230 230 231 231 235
235 254 257 250 243 239 286 282 285 276 280 274 274 273 269 272 274 266 263 268 259 239 235 229 221 220 216 215 210 220 220 222 227 230 231 233 232 231 230 229 231 229 228 229 231 228 227 233 230
226 231 250 252 241 254 252 277 279 275 248 269 264 257 265 266 270 268 261 249 254 241 233 230 227 220 219 215 213 217 223 223 222 225 230 232 233 234 233 232 230 230 228 227 229 229 224 223 228
232 193 229 230 226 251 153 284 280 282 270 262 271 260 260 265 263 261 264 260 248 248 244 233 229 223 221 214 210 204 215 216 221 224 228 228 232 233 235 233 233 231 229 224 228 229 227 220 222
242 162 204 202 217 262 235 243 284 289 284 270 267 248 253 260 268 268 263 259 258 251 242 235 227 223 220 213 211 212 214 226 226 223 225 227 228 232 232 234 231 229 227 228 225 225 226 225 222
128 135 70 224 203 244 248 214 265 259 253 285 275 267 270 272 283 277 276 277 270 256 248 238 226 221 220 215 213 213 217 219 220 221 222 225 225 228 230 231 230 229 227 227 226 227 226 224 225
175 141 264 267 229 247 166 182 236 268 268 259 281 287 289 298 279 275 282 288 276 262 249 241 231 222 218 215 216 217 221 221 221 220 222 223 223 223 228 227 225 225 228 226 225 223 224 226 224
198 194 212 208 231 252 127 217 251 239 262 268 274 315 310 302 299 290 289 279 294 296 274 257 243 233 222 217 219 222 224 224 227 228 227 227 226 226 227 225 223 225 225 226 225 223 225 224 228
193 199 221 289 167 266 227 284 291 279 278 284 316 339 336 341 342 341 338 346 347 336 312 303 272 254 243 230 227 228 228 228 230 232 231 230 230 231 229 227 225 224 225 224 223 224 225 224 226
195 149 163 253 205 240 232 256 245 277 259 354 14 357 331 341 350 348 357 359 356 352 342 335 314 278 258 248 238 234 235 234 235 237 236 235 235 232 227 228 227 225 225 224 223 225 227 226 227
177 212 204 158 156 197 247 247 222 260 207 334 325 319 314 324 339 332 331 339 338 338 342 329 326 318 304 288 267 249 243 244 240 237 238 238 236 231 228 226 226 224 223 224 223 225 226 226 228
212 221 212 219 223 237 257 263 236 195 325 45 327 315 280 295 321 333 339 351 5 7 2 354 350 340 330 323 313 294 269 258 248 246 243 240 238 235 232 230 227 226 224 224 223 225 226 225 227